EHI
11 8 10 15 13 4 0 0 0 0 0 0 0 0 0 0 0 0 0 0 0 0 1 2 3 5 6 7 8 7 5 2 1 1 0 0 0 1 3 1 0 0 0 1 2 2 2 1 2
9 8 11 14 9 2 0 0 0 0 0 0 0 0 0 0 0 0 0 0 0 0 0 1 2 3 5 8 9 8 5 1 1 1 1 0 0 1 2 1 0 0 0 0 1 1 1 1 2
8 10 13 10 4 0 0 0 0 0 0 0 0 0 0 0 0 0 0 0 0 0 0 1 1 2 3 7 9 8 4 1 2 2 2 1 2 1 1 0 0 0 0 0 0 0 1 2 3
10 12 11 6 1 0 0 0 0 0 0 0 0 0 0 0 0 0 0 0 0 0 0 1 1 1 3 5 7 6 4 2 2 3 3 3 4 3 1 0 0 1 1 1 1 1 2 3 3
12 11 7 2 0 0 0 0 0 0 0 0 0 0 0 0 0 0 0 0 0 0 0 1 1 1 2 4 5 4 2 2 3 4 4 4 4 3 1 0 0 1 2 2 1 2 3 3 3
9 6 2 0 0 0 0 0 0 0 0 0 0 0 0 1 1 0 0 0 0 0 1 1 1 0 1 3 3 2 1 2 3 4 4 4 4 2 1 0 0 1 1 1 1 2 3 3 3
3 2 1 0 0 0 0 0 0 0 0 0 0 0 1 2 2 1 0 0 0 0 1 1 1 0 0 1 1 1 1 1 3 4 3 3 3 1 0 0 0 0 0 0 1 2 3 3 3
0 0 0 0 0 0 0 0 0 0 0 0 0 0 1 2 3 1 1 1 0 0 0 0 0 0 0 0 1 1 0 1 1 2 2 2 1 0 0 0 0 0 0 0 1 2 3 2 1
0 0 0 0 0 0 0 0 0 0 0 0 0 0 1 2 3 3 2 2 1 0 0 0 0 0 0 0 0 0 0 0 0 1 1 1 0 0 0 0 0 0 0 0 1 2 1 1 0
0 0 0 0 0 0 0 0 0 0 0 0 0 0 1 3 3 3 3 3 2 1 0 0 0 0 0 0 1 1 1 1 0 0 0 1 1 1 0 0 0 0 0 0 1 1 0 0 0
0 0 0 0 0 0 0 0 0 0 1 0 0 1 2 3 3 3 3 3 3 2 1 0 0 0 0 1 2 3 3 3 1 1 2 3 3 2 1 0 0 0 0 0 0 0 0 0 0
0 0 0 0 0 0 0 0 0 0 0 1 1 1 2 3 3 3 3 3 2 2 1 1 0 1 1 2 3 2 2 2 1 2 3 4 4 3 2 1 1 0 0 0 0 0 0 0 0
0 0 0 0 0 0 0 0 0 0 0 1 3 2 1 1 2 3 3 3 2 2 2 2 2 2 3 4 4 2 2 1 1 2 4 4 3 2 1 2 1 0 0 0 0 0 0 0 0
0 0 0 0 0 0 1 0 1 1 2 2 3 3 1 0 1 3 3 3 2 2 3 3 4 3 3 3 4 3 3 2 1 2 3 3 3 1 0 1 1 0 0 0 0 0 0 0 0
0 0 0 0 0 0 0 1 2 3 3 3 3 3 2 1 1 2 2 2 2 2 3 4 4 4 3 2 2 3 4 4 4 4 3 2 2 2 1 1 0 0 1 1 0 0 0 0 0
0 0 0 0 0 0 0 1 3 3 3 3 3 3 3 1 0 1 1 2 3 4 6 6 6 5 5 3 3 5 7 8 7 6 4 1 1 1 2 2 1 1 2 1 0 0 0 0 0
0 0 0 0 0 0 0 1 3 3 3 3 3 3 3 2 2 2 2 3 5 7 11 12 11 9 8 6 4 4 7 8 7 6 3 1 0 0 1 2 3 2 2 1 0 0 0 0 0
0 0 0 0 0 0 0 1 2 3 3 3 3 4 5 5 5 5 6 6 6 9 15 19 18 15 13 8 4 3 4 4 5 4 3 1 0 0 1 2 3 2 1 0 0 0 0 1 1
0 0 0 0 0 0 0 1 3 4 3 3 4 6 8 8 8 9 9 9 8 10 15 21 23 21 18 13 7 4 2 3 3 3 2 0 0 0 0 2 2 1 0 0 0 0 0 0 0
0 0 0 0 0 0 0 1 3 4 3 3 5 7 9 9 11 13 13 12 11 11 14 18 22 23 21 17 12 7 3 2 2 2 2 1 1 0 0 1 2 1 0 0 0 0 0 0 0
0 0 0 0 0 0 0 1 3 4 4 4 6 8 9 11 14 17 18 16 14 12 11 14 18 21 21 19 14 9 6 4 3 3 3 3 2 1 0 1 1 0 0 0 0 0 0 0 0
0 0 0 0 0 0 0 1 2 3 4 5 8 10 11 14 17 20 21 19 15 12 11 13 16 18 18 17 15 12 9 7 5 4 4 4 3 3 2 1 2 1 1 0 0 1 2 2 2
0 0 0 0 0 0 0 0 1 2 3 5 8 9 11 15 17 19 19 18 15 12 13 15 17 17 17 17 17 16 13 9 7 6 5 4 4 4 4 4 5 5 3 1 1 2 4 4 4
0 0 0 0 0 0 0 0 1 2 2 4 5 5 7 11 14 16 16 15 14 14 16 18 21 21 20 19 19 19 16 11 9 8 6 4 4 5 6 6 8 8 6 4 3 3 4 4 5
0 0 0 0 0 0 0 0 1 2 3 4 5 4 5 8 12 15 16 15 15 17 21 24 26 26 24 22 21 21 18 13 11 10 8 6 5 5 7 8 10 12 11 8 6 6 6 6 7
0 0 0 0 0 0 0 0 1 2 3 4 5 5 6 7 10 14 16 16 16 19 25 29 31 32 31 28 26 23 17 11 9 10 9 7 5 5 7 10 12 15 14 12 11 11 11 12 12
0 0 0 0 0 0 0 0 1 2 3 3 4 5 7 7 9 13 16 16 16 17 21 28 33 37 38 35 29 23 17 12 9 10 11 9 7 6 8 11 14 17 18 17 17 16 16 16 16
0 0 0 0 0 0 0 0 2 4 4 4 5 8 10 10 11 14 16 17 15 14 16 22 29 35 36 33 26 21 19 16 13 13 15 14 11 11 13 15 18 21 24 24 22 21 19 18 17
0 0 0 0 0 0 0 1 3 5 6 7 9 13 13 12 13 15 17 18 17 16 16 21 27 30 28 25 22 21 20 19 18 17 18 18 17 18 19 21 23 24 26 26 25 22 19 17 16
0 0 0 0 0 0 0 1 3 4 5 7 12 17 16 13 13 16 17 18 19 19 20 25 28 27 24 20 20 22 22 21 20 19 19 20 21 21 23 24 26 26 26 26 25 22 17 15 14
Wind_Speed
13 10 6 5 7 2 12 10 8 7 7 8 8 6 8 9 8 7 5 5 5 5 6 9 9 9 10 10 11 13 14 15 16 16 17 17 16 16 17 17 16 16 16 16 16 16 15 14 14
9 7 6 6 3 8 12 10 10 10 7 5 6 6 8 8 7 6 4 5 5 6 7 9 11 9 9 10 11 12 14 15 16 16 16 16 16 16 17 17 17 16 16 16 15 15 15 14 14
7 6 6 3 7 10 11 10 9 8 5 4 5 6 7 7 6 5 5 5 6 7 8 11 11 9 9 10 11 12 14 15 16 16 16 16 17 16 16 17 17 16 15 15 15 14 14 14 14
5 6 6 1 11 11 8 8 6 6 6 5 5 8 7 6 5 6 6 6 7 7 8 11 10 9 9 10 11 12 14 15 15 15 16 16 17 17 17 16 16 15 15 14 14 14 14 14 13
6 6 2 7 12 9 8 6 4 5 6 6 6 8 9 7 8 8 7 6 7 7 8 11 11 9 9 10 11 12 13 15 14 14 15 15 16 17 17 16 16 15 15 14 13 13 13 13 12
5 4 3 9 11 8 7 6 5 6 7 6 6 8 8 7 8 7 7 6 7 7 8 10 11 10 9 10 11 12 13 13 13 14 15 15 15 15 16 15 15 15 14 13 13 13 12 12 11
5 3 6 8 8 8 6 5 5 6 7 6 4 7 8 8 8 7 7 7 7 7 8 8 9 10 10 9 10 11 12 12 12 13 14 15 15 15 15 15 14 14 14 13 12 12 11 11 10
5 3 5 7 8 9 6 4 5 5 8 7 3 5 8 10 8 8 7 8 7 6 7 7 7 8 8 9 10 10 10 11 11 12 14 15 16 15 15 14 13 14 13 13 12 11 10 10 9
6 3 7 8 7 7 5 4 5 4 8 6 4 6 12 13 10 9 8 8 7 6 5 6 7 7 7 7 9 9 10 10 10 11 13 12 10 11 11 13 13 13 13 12 11 11 10 9 9
4 3 8 7 6 5 3 3 5 5 7 8 9 11 13 12 10 9 8 8 8 7 6 5 5 6 7 6 6 5 6 7 7 7 8 7 7 6 8 12 12 12 12 12 11 10 10 8 6
2 4 5 5 5 3 3 4 4 4 5 6 10 13 13 11 9 8 8 7 7 7 6 6 5 5 5 5 4 4 3 4 6 7 7 5 5 5 6 5 8 8 10 7 9 9 6 5 4
2 2 3 3 3 2 2 4 4 3 6 7 10 14 13 11 9 8 8 7 7 6 6 5 5 5 5 4 4 4 4 4 4 6 6 5 4 4 5 4 4 5 4 5 4 3 4 3 4
3 2 2 2 1 2 3 3 3 5 7 9 12 13 12 11 9 8 7 7 6 6 6 5 4 5 5 4 3 4 4 4 5 5 5 5 4 4 5 4 4 4 4 5 4 4 4 3 4
2 2 1 0 3 3 3 4 4 5 8 11 12 12 12 10 10 9 8 7 7 6 6 6 5 5 5 4 3 3 4 4 4 4 5 5 4 4 4 5 4 4 4 4 3 4 4 3 3
4 4 3 2 2 3 4 4 3 7 10 11 11 11 11 10 10 9 9 8 8 7 6 6 6 6 5 5 4 3 4 5 4 4 5 5 5 5 5 4 4 4 4 5 4 4 3 3 3
7 8 5 4 2 3 6 1 6 8 10 10 10 10 10 10 10 9 9 8 7 7 7 6 6 7 6 4 4 3 3 4 4 4 5 5 5 5 4 4 4 4 4 4 4 4 3 3 3
9 7 4 3 2 3 5 1 5 9 10 10 10 10 10 10 10 10 10 9 8 8 8 7 6 6 6 6 4 4 3 3 4 4 4 5 6 6 5 4 4 5 4 4 4 3 3 3 2
6 5 4 3 1 3 5 3 4 8 9 9 10 10 10 11 11 11 10 10 9 8 8 8 8 7 6 6 5 4 4 4 4 4 4 5 5 6 5 5 6 5 4 4 3 3 3 3 3
7 7 6 3 0 4 4 4 3 7 8 9 10 10 11 10 10 11 11 10 10 9 9 9 8 8 7 6 6 6 5 5 4 5 6 6 6 6 6 5 6 5 4 4 5 4 5 4 3
10 10 8 5 2 4 5 4 3 5 8 9 10 11 11 11 11 10 11 11 11 11 10 10 9 9 9 6 5 4 4 4 4 4 5 6 6 6 6 5 5 5 4 5 5 5 4 3 3
11 10 9 6 4 7 7 7 5 6 7 8 9 9 10 11 12 12 12 12 11 11 11 9 10 9 9 8 6 5 5 4 5 6 5 6 7 7 6 6 5 5 5 5 5 5 6 4 4
11 8 8 8 9 7 7 7 4 5 7 8 9 9 10 11 11 11 12 12 12 11 11 10 10 9 9 9 8 9 7 6 6 5 5 6 7 7 7 7 6 6 5 5 6 6 5 5 4
8 5 7 9 10 10 9 9 4 6 6 7 8 9 10 10 11 11 12 11 11 11 10 10 10 10 9 9 9 9 7 6 5 5 6 6 6 7 7 7 6 6 5 5 5 4 5 5 5
6 7 8 10 11 12 10 10 7 4 5 4 5 7 8 8 10 11 11 11 10 10 10 10 10 10 10 10 10 9 8 7 6 7 6 6 6 6 8 8 7 7 6 6 6 5 6 5 5
11 11 9 11 11 10 6 9 5 2 2 2 2 4 5 7 9 10 11 11 11 11 11 11 11 10 10 10 10 10 9 9 8 8 7 7 6 6 7 7 7 7 6 6 6 6 6 7 6
12 13 12 10 9 7 8 9 4 1 1 2 2 2 4 6 7 9 10 11 11 11 11 11 11 10 10 10 9 9 9 8 7 8 6 6 5 5 5 7 7 7 7 7 6 6 7 6 6
10 12 12 12 12 11 7 6 5 4 4 3 1 2 3 4 6 8 9 10 10 11 11 11 11 10 10 10 9 8 8 8 7 6 7 6 5 5 6 7 7 7 7 7 6 6 6 6 7
9 8 9 12 11 12 11 11 7 5 5 3 2 1 2 3 5 7 8 9 9 9 10 10 10 10 9 9 9 8 8 8 7 6 6 6 6 5 5 6 7 7 7 7 7 6 6 6 6
9 10 9 9 10 12 11 6 1 3 3 3 2 2 2 3 4 5 6 7 8 8 9 9 9 9 9 8 8 7 8 8 8 7 7 6 6 6 6 6 6 6 7 7 6 7 7 7 6
9 9 11 11 11 11 12 5 3 1 0 1 1 2 2 2 3 4 5 5 6 7 8 8 8 8 8 8 8 8 7 7 8 8 7 7 7 7 7 6 6 7 7 6 7 7 7 7 7
Wind_Direction
172 179 200 231 234 96 58 54 51 60 62 54 51 49 50 39 25 55 59 58 62 79 102 117 108 109 112 117 124 130 135 137 139 138 138 137 137 138 136 133 129 128 129 129 131 133 131 129 127
172 180 223 241 300 63 62 51 55 54 73 80 65 62 66 60 52 73 75 69 85 84 94 102 106 109 112 114 119 127 132 135 139 141 140 138 140 141 138 134 132 131 132 131 130 132 132 130 128
176 221 258 262 42 46 52 52 64 76 78 73 75 56 52 61 66 70 78 94 94 87 92 99 105 109 113 114 118 126 132 135 138 139 140 140 142 140 137 136 134 134 133 132 131 131 131 131 129
205 226 235 349 58 53 50 55 73 88 79 68 85 84 76 56 66 84 96 100 96 93 97 101 104 105 111 114 118 125 133 135 137 138 139 140 139 138 137 134 133 133 132 131 129 127 126 128 129
240 257 216 70 61 57 58 60 66 63 72 77 84 93 88 78 90 101 103 101 98 97 98 101 103 102 106 112 116 121 128 133 136 138 140 139 138 139 137 135 134 132 131 133 132 128 128 129 129
246 251 37 59 64 63 68 75 77 72 88 92 95 98 90 109 107 105 103 98 94 99 103 106 110 102 102 110 114 118 124 131 136 139 140 140 141 139 138 138 137 136 134 133 132 128 127 127 127
293 343 45 53 61 70 64 66 65 81 90 88 98 99 112 120 111 113 108 102 94 94 99 103 114 118 114 109 110 116 124 132 135 137 140 141 140 141 140 141 141 140 138 137 135 131 129 130 130
294 293 59 58 49 62 79 85 69 67 85 102 113 105 122 126 129 125 117 109 97 91 95 105 108 112 120 120 117 116 120 129 133 136 140 142 144 143 145 145 143 143 142 140 139 134 132 132 135
265 283 49 45 38 57 88 103 96 92 110 108 88 87 116 131 138 135 125 115 112 109 104 103 108 113 116 116 121 127 128 130 140 141 141 146 146 143 150 141 144 146 146 144 142 141 141 145 147
265 13 43 30 26 48 86 97 123 140 128 120 114 112 126 141 148 143 134 130 125 121 114 107 111 118 122 121 124 128 131 133 136 133 140 142 135 139 140 138 150 149 149 150 150 152 161 178 157
280 359 17 22 29 51 100 115 138 147 121 127 137 141 147 152 154 148 139 133 126 126 121 122 117 117 124 127 126 120 123 128 131 132 136 135 141 146 144 145 153 156 159 158 154 169 173 166 146
267 336 344 1 29 56 92 116 123 85 75 114 138 146 153 159 158 154 147 139 133 131 130 123 127 128 124 121 123 134 132 134 135 136 146 141 143 147 135 141 146 152 150 150 160 158 150 152 162
243 323 360 9 56 99 125 120 107 105 104 126 139 151 158 161 160 157 152 148 146 144 141 135 129 128 130 131 143 138 137 137 135 135 141 149 149 146 140 141 147 155 148 156 160 153 152 165 182
321 294 307 106 110 134 144 132 142 123 135 143 153 160 164 166 165 161 165 165 164 162 156 151 152 147 147 148 148 143 143 141 140 143 145 154 147 141 148 151 151 152 152 150 156 157 166 182 183
259 250 207 156 153 151 192 159 149 143 153 157 162 166 169 173 173 174 174 175 173 172 170 164 165 158 162 161 156 146 145 145 148 145 149 158 157 151 158 153 160 153 151 156 168 169 179 187 189
235 239 224 143 188 191 247 132 133 159 167 167 169 171 176 179 183 180 181 182 178 175 174 177 175 165 171 170 165 154 148 144 152 159 157 163 162 167 171 165 165 159 169 174 172 187 185 189 201
224 240 251 149 187 228 248 302 126 166 176 174 176 178 181 181 188 186 188 185 184 182 178 179 183 176 175 169 170 165 156 162 166 169 168 165 174 178 183 175 164 178 181 184 192 175 194 194 202
238 247 246 251 155 252 253 264 148 174 188 184 183 185 188 189 188 187 191 188 186 186 186 184 183 181 179 176 174 178 173 177 179 178 175 178 184 185 189 181 180 194 188 189 194 182 200 212 216
268 262 257 262 236 267 266 269 198 182 194 191 191 191 194 195 187 185 190 190 187 187 189 190 189 180 184 184 186 183 180 182 182 185 179 188 195 188 195 194 177 197 195 201 197 196 197 210 208
245 248 249 242 210 262 270 269 233 191 202 203 199 197 197 192 188 188 192 192 192 190 191 191 191 186 190 185 189 192 185 189 184 187 179 195 196 194 190 195 195 192 193 201 206 209 221 218 208
238 246 252 255 243 232 252 241 208 188 200 204 208 204 201 198 192 190 193 196 194 193 195 195 193 190 192 185 187 183 182 196 185 189 188 194 196 198 203 196 203 198 206 197 207 214 221 225 220
237 239 251 250 249 242 245 265 206 191 193 203 205 204 203 199 194 192 192 194 196 194 193 194 192 192 191 191 199 198 197 198 192 192 184 187 194 199 199 203 203 208 214 200 213 210 221 228 229
252 248 244 248 253 259 238 259 232 191 215 211 203 202 204 199 194 192 192 192 193 190 188 188 189 192 193 198 200 205 208 203 195 193 183 195 195 202 206 205 206 209 217 214 224 215 229 229 238
223 226 231 240 247 246 245 256 247 214 233 231 192 193 199 198 196 192 188 186 189 187 186 183 183 190 194 198 202 204 205 205 201 199 195 201 200 202 205 207 209 214 220 215 220 222 224 238 244
215 228 229 225 226 237 222 248 256 261 264 274 236 192 191 195 194 188 186 185 188 189 188 186 186 191 193 196 201 202 206 206 207 209 205 212 210 204 199 208 210 217 218 220 222 222 230 226 230
220 236 247 253 247 230 206 239 236 202 209 229 236 196 187 186 185 184 184 183 188 189 189 187 189 192 193 195 197 201 206 210 211 210 219 214 221 218 200 207 214 220 220 221 219 228 224 222 224
222 232 253 263 265 265 243 235 220 206 208 206 176 150 156 167 174 174 175 180 185 189 189 189 189 192 194 196 195 198 204 214 216 211 217 219 218 218 208 211 214 218 220 224 223 232 229 223 225
251 243 239 248 253 254 244 240 238 212 227 220 198 162 136 150 167 167 172 177 182 186 186 190 191 194 196 196 199 196 200 204 212 217 216 220 218 219 218 217 214 215 217 220 224 229 225 228 229
212 223 239 250 259 262 258 244 168 212 223 231 196 143 146 160 163 166 167 173 177 180 182 188 191 193 195 198 198 200 196 198 202 208 214 213 216 213 216 220 221 221 220 220 219 230 226 227 229
242 236 235 244 245 254 269 260 110 138 196 225 141 123 128 151 157 162 158 165 175 181 182 186 191 194 195 194 195 198 197 198 202 204 208 210 212 215 213 216 218 222 222 222 221 227 228 230 231